Location: Stara Lesna
(49.1528°N, 20.2911°E)
Time: 10:09:59
(UTC+02:00)

Lacrosse 5 - Pass Details

Date: 13 July 2020
Orbit: 717 x 720 km, 57.0° (Epoch: 02 August)

Event Time Altitude Azimuth Distance (km) Brightness Sun altitude
Exits shadow 03:02:39 - 264° (W) 2,709 4.5 -12.7°
Reaches altitude 10° 03:04:02 10° 269° (W) 2,202 4.1 -12.6°
Maximum altitude 03:08:52 44° 341° (NNW) 994 2.9 -12.1°
Drops below altitude 10° 03:13:44 10° 54° (NE) 2,209 5.7 -11.7°
Sets 03:16:14 0° 61° (ENE) 3,131 6.5 -11.5°
